[[{"header":{"parameterUnit":"m.s-1","parameterCategory":1,"la1":30.2991,"la2":30.254,"lo1":-89.0895,"lo2":-89.0444,"dy":0.0017,"dx":0.0017,"nx":28,"ny":28,"refTime":"2023-10-10T03:00:00:Z","depth":0,"parameterNumber":2,"parameterNumberName":"U-component_of_WINDS"},"data":[0,0,0,0,0,0,0,0,0,0,0,0,0,0,0,0,0,0,0,0,0,0,0,0,0,0,0,0,0,0,0,0,0,0,0,0,0,0,0,0,0,0,0,0,0,0,0,0,0,0,0,0,0,0,0,0,0,0,2.5636,2.5636,0,2.5664,2.5665,2.5665,2.563,2.5628,2.5627,2.5626,2.5654,2.5655,2.5657,0,0,0,0,0,0,0,0,0,0,0,0,0,2.5547,2.5549,2.5636,2.5636,2.5637,2.5664,2.5665,2.5665,2.563,2.5628,2.5627,2.5625,2.5653,2.5655,2.5657,0,0,0,0,0,0,0,0,0,0,0,0,0,2.5582,2.5549,2.5636,2.5622,2.5621,2.5664,2.5665,2.5665,2.563,2.5628,2.5626,2.5625,2.5652,2.5655,2.5658,2.5714,0,0,2.5667,2.5668,0,0,0,0,0,0,0,0,2.558,2.5585,2.5624,2.5623,2.5622,2.5642,2.5643,2.5682,2.5631,2.5627,2.5626,2.5624,2.5651,2.5654,2.5663,2.5716,2.5717,2.5667,2.5669,2.567,2.5671,0,0,0,0,0,0,0,2.5577,2.5583,2.5647,2.5625,2.5624,2.5614,2.5616,2.565,2.5649,2.5627,2.5625,2.5629,2.565,2.5661,2.5664,2.5717,2.5667,2.5669,2.5671,2.5672,2.5812,2.5814,0,0,0,0,0,0,2.5577,2.5582,2.5646,2.5648,2.5596,2.5617,2.562,2.5637,2.5649,2.5649,2.563,2.5627,2.5657,2.566,2.5665,2.5728,2.567,2.5673,2.5674,2.581,2.5813,2.5815,0,0,0,0,0,0,2.5575,2.5583,2.5645,2.5614,2.5621,2.562,2.564,2.5639,2.5649,2.5651,2.5651,2.5641,2.5655,2.5661,2.5701,2.5728,2.5674,2.5677,2.5808,2.5811,2.5814,2.5857,0,0,0,0,0,0,2.5573,2.5583,2.5605,2.5615,2.5623,2.5683,2.5642,2.5641,2.5655,2.565,2.5662,2.5662,2.5654,2.5697,2.5704,2.5731,2.5679,2.5805,2.5809,2.5813,2.5853,2.5861,2.5868,0,0,0,0,0,2.557,2.5617,2.5607,2.5615,2.5652,2.5684,2.5689,2.568,2.5657,2.5679,2.5679,2.5661,2.5725,2.5702,2.5709,2.5738,2.5804,2.5808,2.5813,2.585,2.586,2.5868,0,0,0,0,0,0,2.5611,2.5618,2.5607,2.5659,2.5671,2.5678,2.5706,2.5691,2.571,2.5705,2.5693,2.5695,2.5738,2.5742,2.5716,2.5791,2.576,2.5766,2.5786,2.5795,2.5803,2.5799,2.5681,0,0,0,0,0,2.5627,2.5653,2.5658,2.5703,2.571,2.5707,2.5721,2.5713,2.5725,2.5729,2.5733,2.5745,2.5767,2.5782,2.5803,2.5854,2.5854,2.5877,2.5885,2.5891,2.5895,2.5918,2.5928,2.5829,2.5829,2.5829,0,0,2.5658,2.5665,2.5683,2.5712,2.572,2.5746,2.5711,2.5742,2.576,2.5734,2.5771,2.5775,2.5786,2.5832,2.5852,2.5837,2.5923,2.5897,2.5901,2.5903,2.5924,2.5933,2.5942,2.5832,2.5832,2.5831,0,0,2.5729,2.5739,2.5775,2.5784,2.5797,2.5794,2.5802,2.5811,2.5812,2.5849,2.5829,2.585,2.589,2.5898,2.5907,2.5977,2.5959,2.5984,2.6022,2.6045,2.6052,2.6059,2.608,2.6088,2.5989,2.599,2.599,0,2.5766,2.5806,2.5796,2.5826,2.5837,2.5815,2.585,2.5859,2.5878,2.5885,2.5869,2.5915,2.5922,2.5966,2.5982,2.5992,2.5999,2.5982,2.6052,2.6059,2.6065,2.6085,2.6093,2.5992,2.5992,2.5992,2.5991,0,2.5849,2.5876,2.5904,2.5922,2.5937,2.597,2.5963,2.5979,2.5969,2.5967,2.6003,2.601,2.603,2.6041,2.6032,2.6083,2.6072,2.6054,2.6023,2.6077,2.6095,2.6103,2.5996,2.5995,2.5994,2.5994,0,0,2.5947,2.5956,2.5966,2.5972,2.5983,2.6003,2.6034,2.6053,2.6065,2.6078,2.6101,2.6134,2.6116,2.6126,2.6118,2.6138,2.6188,2.6117,2.6117,2.6127,2.624,2.6251,2.626,2.6177,2.6179,2.618,2.6237,0,2.6014,2.6066,2.6057,2.6107,2.613,2.6107,2.6133,2.6141,2.614,2.6158,2.6156,2.6178,2.6155,2.616,2.6179,2.6178,2.621,2.6174,2.6196,2.6197,2.619,2.627,2.6283,2.6337,2.6245,2.6246,2.6247,0,2.61,2.6114,2.6166,2.617,2.6179,2.6202,2.6217,2.6235,2.6243,2.624,2.6251,2.6238,2.6265,2.6235,2.6271,2.6247,2.6255,2.6256,2.6258,2.6257,2.6223,2.6268,2.6354,2.6361,2.6259,2.6258,2.6257,0,2.6161,2.6194,2.6228,2.6234,2.624,2.6256,2.6259,2.6266,2.6276,2.6289,2.6295,2.6311,2.6319,2.6331,2.6322,2.6301,2.6358,2.6328,2.6354,2.6354,2.6365,2.6363,2.645,2.6376,2.6376,2.6376,2.6375,0,2.6235,2.6267,2.6254,2.6275,2.6309,2.6297,2.633,2.6331,2.6336,2.6355,2.6337,2.6355,2.6343,2.636,2.6353,2.6381,2.6386,2.6383,2.638,2.6382,2.6382,2.6385,2.638,2.6378,2.6377,2.6377,2.6376,0,2.6308,2.6302,2.6336,2.6338,2.6339,2.6364,2.6365,2.6383,2.6379,2.6403,2.6408,2.6402,2.642,2.6413,2.6432,2.6427,2.6463,2.6457,2.646,2.6457,2.6481,2.6478,2.657,2.658,2.6503,2.6504,2.6504,0,2.6354,2.6378,2.6381,2.6392,2.6396,2.6415,2.6424,2.6413,2.6424,2.6432,2.6449,2.6465,2.6477,2.6507,2.6504,2.6517,2.6509,2.6541,2.6511,2.6512,2.6505,2.6503,2.6503,2.6546,2.6547,2.6547,2.6548,0,2.6435,2.643,2.6445,2.6458,2.647,2.648,2.6489,2.6499,2.6487,2.65,2.6517,2.6527,2.6545,2.656,2.6572,2.6574,2.6558,2.6557,2.6563,2.6565,2.6564,2.6561,2.6472,2.6555,2.6554,2.6554,2.6553,2.6553,2.6494,2.6512,2.6516,2.6532,2.6536,2.6544,2.6559,2.6557,2.6571,2.6585,2.6577,2.6597,2.6601,2.6615,2.6618,2.6632,2.662,2.6629,2.6631,2.6633,2.6634,2.6564,2.6635,2.6635,2.6634,2.6634,2.6634,0,2.6571,2.6571,2.6586,2.6597,2.6609,2.6594,2.6601,2.6612,2.6629,2.6634,2.6646,2.6664,2.6678,2.6675,2.6687,2.6699,2.6691,2.6702,2.6699,2.6699,2.6647,2.6639,2.6707,2.6707,2.6707,2.6707,2.6707,2.6707,2.6612,2.664,2.6635,2.6663,2.6664,2.6682,2.6687,2.6693,2.6696,2.6717,2.6728,2.6726,2.6727,2.6739,2.675,2.6748,2.6752,2.6765,2.676,2.6711,2.6703,2.6696,2.6688,2.6766,2.6766,2.6811,2.6811,2.6812]},{"header":{"parameterUnit":"m.s-1","parameterCategory":1,"la1":30.2991,"la2":30.254,"lo1":-89.0895,"lo2":-89.0444,"dy":0.0017,"dx":0.0017,"nx":28,"ny":28,"refTime":"2023-10-10T03:00:00:Z","depth":0,"parameterNumber":3,"parameterNumberName":"V-component_of_WINDS"},"data":[0,0,0,0,0,0,0,0,0,0,0,0,0,0,0,0,0,0,0,0,0,0,0,0,0,0,0,0,0,0,0,0,0,0,0,0,0,0,0,0,0,0,0,0,0,0,0,0,0,0,0,0,0,0,0,0,0,0,1.5562,1.5562,0,1.5549,1.5549,1.5549,1.5494,1.5493,1.5491,1.549,1.5477,1.5477,1.5478,0,0,0,0,0,0,0,0,0,0,0,0,0,1.5538,1.5539,1.5562,1.5562,1.5562,1.5549,1.5549,1.5549,1.5494,1.5493,1.5491,1.549,1.5476,1.5477,1.5478,0,0,0,0,0,0,0,0,0,0,0,0,0,1.5539,1.5539,1.5562,1.5533,1.553,1.5549,1.5549,1.5549,1.5494,1.5492,1.5491,1.5489,1.5476,1.5477,1.5478,1.5524,0,0,1.5482,1.5483,0,0,0,0,0,0,0,0,1.5539,1.554,1.5538,1.5535,1.5532,1.5521,1.5535,1.554,1.5495,1.5508,1.549,1.5488,1.5493,1.5493,1.5494,1.5524,1.5523,1.5482,1.5483,1.5484,1.5484,0,0,0,0,0,0,0,1.5539,1.554,1.5557,1.5538,1.5534,1.552,1.5518,1.5536,1.5511,1.5507,1.5503,1.5502,1.5491,1.5493,1.5494,1.5523,1.5482,1.5483,1.5484,1.5485,1.5584,1.5586,0,0,0,0,0,0,1.5543,1.5541,1.5557,1.5557,1.5531,1.5522,1.552,1.5527,1.5511,1.5507,1.5504,1.5499,1.5492,1.5492,1.5493,1.5543,1.5484,1.5485,1.5485,1.5582,1.5585,1.5587,0,0,0,0,0,0,1.5543,1.5546,1.5558,1.5548,1.5548,1.5524,1.5533,1.5527,1.5529,1.5509,1.5504,1.5511,1.5491,1.5491,1.5516,1.5541,1.5485,1.5486,1.558,1.5583,1.5586,1.5644,0,0,0,0,0,0,1.5543,1.5546,1.5564,1.5548,1.5549,1.5582,1.5534,1.5528,1.5532,1.5526,1.5514,1.551,1.5489,1.5514,1.5517,1.5542,1.5487,1.5578,1.5581,1.5585,1.564,1.5649,1.5656,0,0,0,0,0,1.5542,1.5582,1.5565,1.5567,1.5571,1.5584,1.5584,1.5559,1.5534,1.5551,1.5537,1.551,1.5538,1.5517,1.552,1.5546,1.5576,1.558,1.5584,1.5636,1.5647,1.5656,0,0,0,0,0,0,1.5602,1.5579,1.5561,1.5597,1.5592,1.5575,1.5596,1.5572,1.5575,1.557,1.5539,1.5537,1.5565,1.5558,1.5535,1.5587,1.5552,1.5557,1.5591,1.5601,1.5609,1.5609,1.5488,0,0,0,0,0,1.5619,1.5632,1.5611,1.5645,1.5644,1.562,1.5625,1.5606,1.56,1.5598,1.5586,1.5582,1.5589,1.5595,1.56,1.5638,1.5633,1.5657,1.5665,1.5672,1.5677,1.5693,1.5702,1.5601,1.5601,1.5601,0,0,1.5655,1.5644,1.5655,1.5657,1.5651,1.5664,1.5619,1.5636,1.5644,1.5601,1.5623,1.5613,1.5606,1.5636,1.5649,1.5631,1.5703,1.5678,1.5683,1.5684,1.5698,1.5708,1.5716,1.5604,1.5603,1.5603,0,0,1.5727,1.5721,1.5747,1.5741,1.5733,1.5716,1.5723,1.5708,1.5699,1.5721,1.5687,1.5697,1.5711,1.5706,1.5705,1.5771,1.5745,1.5774,1.5816,1.5832,1.584,1.5847,1.5868,1.5876,1.5778,1.5778,1.5779,0,1.5773,1.5791,1.5763,1.578,1.5781,1.5741,1.5766,1.5762,1.5756,1.5757,1.5737,1.5751,1.5744,1.5771,1.5786,1.5788,1.5792,1.5775,1.5841,1.5848,1.5854,1.5874,1.5882,1.5782,1.5781,1.5781,1.5781,0,1.5846,1.5859,1.5881,1.5875,1.5878,1.5899,1.5873,1.5879,1.5859,1.5844,1.5864,1.5853,1.5854,1.5859,1.5841,1.5883,1.5871,1.5847,1.5811,1.5868,1.5885,1.5893,1.5787,1.5785,1.5784,1.5784,0,0,1.5957,1.5933,1.5941,1.5936,1.5922,1.5931,1.5949,1.5949,1.5954,1.5951,1.5964,1.5975,1.5951,1.595,1.593,1.5944,1.5993,1.5917,1.5916,1.593,1.6035,1.6053,1.6062,1.5976,1.5977,1.5978,1.6035,0,1.6024,1.6053,1.6026,1.606,1.607,1.6031,1.6046,1.6038,1.6024,1.6029,1.6013,1.6021,1.599,1.5989,1.6001,1.5985,1.6014,1.598,1.5986,1.5986,1.5988,1.6072,1.6091,1.6145,1.6042,1.6043,1.6044,0,1.6106,1.6104,1.6138,1.6119,1.6122,1.6136,1.6132,1.6138,1.6128,1.6116,1.6114,1.6088,1.6103,1.6068,1.6086,1.6064,1.6064,1.6056,1.6057,1.6056,1.6018,1.6071,1.6162,1.6169,1.6055,1.6054,1.6054,0,1.6179,1.6186,1.6206,1.6204,1.6183,1.6193,1.6184,1.6172,1.6172,1.6169,1.6169,1.6168,1.6167,1.6165,1.6139,1.6117,1.6159,1.6124,1.6149,1.6149,1.6159,1.6158,1.625,1.6162,1.6162,1.6162,1.6162,0,1.6256,1.6278,1.6239,1.6252,1.6274,1.6243,1.6266,1.6253,1.6241,1.625,1.6216,1.6224,1.619,1.6194,1.6174,1.619,1.6191,1.618,1.6175,1.6183,1.6184,1.6182,1.6177,1.6164,1.6163,1.6163,1.6163,0,1.6342,1.6318,1.6337,1.6314,1.6308,1.6326,1.6305,1.6315,1.6298,1.6308,1.6309,1.6281,1.6284,1.6258,1.6256,1.6242,1.6267,1.6256,1.6271,1.6266,1.6292,1.6289,1.6384,1.6394,1.6302,1.6303,1.6304,0,1.6392,1.6407,1.6385,1.6388,1.638,1.6386,1.6385,1.6354,1.6355,1.6342,1.6353,1.6353,1.6351,1.6357,1.6336,1.6333,1.632,1.6354,1.632,1.6326,1.6318,1.6317,1.6317,1.6361,1.6362,1.6363,1.6364,0,1.6481,1.6467,1.6468,1.6464,1.6464,1.646,1.6453,1.6457,1.6423,1.6425,1.6427,1.6425,1.6422,1.6421,1.6414,1.6404,1.6377,1.6374,1.6379,1.6387,1.6394,1.6388,1.6288,1.6372,1.6371,1.6371,1.637,1.637,1.6549,1.6559,1.6544,1.6546,1.6537,1.653,1.6537,1.652,1.6521,1.6515,1.6497,1.6501,1.6486,1.6474,1.6466,1.6468,1.6451,1.646,1.6462,1.6464,1.6467,1.6395,1.6467,1.6467,1.6466,1.6466,1.6466,0,1.6634,1.6622,1.6623,1.6614,1.6614,1.6588,1.6579,1.658,1.6584,1.6573,1.6571,1.6571,1.657,1.6548,1.6543,1.6549,1.6536,1.6548,1.6547,1.6544,1.6484,1.6478,1.6558,1.6558,1.6558,1.6558,1.6558,1.6558,1.6679,1.6694,1.6678,1.6688,1.6675,1.6679,1.6675,1.6668,1.6658,1.666,1.6658,1.6644,1.6627,1.662,1.6617,1.661,1.6609,1.6625,1.6614,1.6558,1.6549,1.654,1.6535,1.6626,1.6626,1.6674,1.6675,1.6675]}]]